Wind_Speed
17 18 18 19 19 20 20 20 21 21 22 23 24 25 27 28 29 28 29 29 29 30 31 31 32 32 33 34 35 36 36 36 37 37 37 37 37 37
16 16 17 17 18 19 20 20 20 21 22 23 24 25 27 28 29 30 29 29 30 30 31 31 30 31 32 32 33 34 36 37 37 38 38 39 39 39
16 16 17 17 19 20 21 21 22 22 23 24 25 26 27 28 29 29 30 29 30 30 30 30 30 30 30 32 33 33 34 35 37 38 39 39 40 40
16 16 16 17 18 19 21 21 22 22 23 24 25 26 27 28 28 29 28 28 29 29 30 30 30 30 30 30 32 33 33 34 35 36 37 38 38 40
15 15 16 17 18 19 20 20 21 22 23 24 24 26 26 27 27 27 27 27 28 29 29 29 29 30 30 30 31 32 33 34 35 35 36 37 37 39
14 15 15 16 18 19 19 20 21 21 23 23 24 25 26 26 26 26 27 27 27 28 28 28 29 30 30 30 30 31 32 33 34 35 36 37 38 39
14 15 16 17 17 18 19 20 20 21 22 24 24 24 24 25 25 26 26 26 27 27 27 28 28 28 28 29 29 29 29 30 32 34 36 37 38 39
15 16 16 17 17 18 19 20 21 22 23 23 23 23 24 24 24 24 25 25 25 26 27 26 26 26 27 27 28 27 28 28 30 32 34 36 37 37
14 15 16 17 18 19 20 21 22 23 23 22 22 23 23 24 24 24 25 25 25 25 25 25 25 25 25 26 27 27 27 27 28 30 32 33 35 37
14 15 16 17 18 19 20 21 22 23 23 23 23 23 23 24 24 24 25 25 24 24 24 24 24 25 25 25 26 27 27 27 28 28 29 31 33 34
14 15 16 17 19 20 21 22 22 22 23 23 23 23 23 24 24 24 24 23 22 22 23 23 23 24 24 24 25 26 27 28 28 29 29 30 31 33
15 16 17 18 19 20 21 21 22 22 22 22 22 23 23 23 23 23 23 23 22 22 23 24 24 23 23 23 24 25 26 27 28 28 28 29 30 31
15 17 18 19 19 20 21 21 21 21 22 22 22 22 22 23 24 24 23 23 23 22 22 23 23 23 23 23 24 25 26 26 26 27 27 27 28 28
17 17 18 18 19 20 20 20 21 21 20 21 21 21 21 22 23 23 23 23 23 22 22 22 22 22 22 23 23 24 25 25 24 24 25 25 25 26
17 17 17 18 19 19 19 19 19 19 19 20 20 20 21 21 21 22 23 23 22 22 22 22 22 22 22 23 23 23 23 23 23 23 22 23 24 24
17 17 17 17 18 19 19 19 19 19 20 20 20 21 21 22 22 21 22 22 22 22 22 22 22 22 23 23 23 22 22 22 21 21 21 21 22 22
18 17 17 17 18 18 19 20 20 20 20 20 20 21 22 22 22 21 21 22 22 21 21 21 22 22 22 22 22 22 21 20 20 20 20 20 21 21
17 17 17 17 18 19 20 20 20 20 20 20 21 21 21 21 22 22 22 22 22 21 21 21 22 22 22 21 22 21 21 21 20 19 19 19 19 20
17 17 17 19 19 20 20 20 20 20 20 20 21 21 22 22 22 22 22 22 22 21 21 21 22 22 21 21 20 21 20 20 19 18 19 19 19 19
18 18 18 19 19 20 20 20 20 20 21 21 21 22 22 22 22 22 22 22 21 21 21 22 22 22 21 20 19 19 19 19 19 19 19 19 18 18
18 18 18 19 19 20 21 20 20 21 21 21 22 22 23 23 23 23 22 21 21 21 21 21 21 20 20 20 19 19 19 19 19 19 19 19 18 18
18 19 19 19 20 20 20 20 20 21 21 22 22 23 23 24 24 23 22 21 20 20 20 19 19 20 20 20 20 19 19 20 20 19 19 18 18 17
19 19 18 19 19 20 20 21 22 21 21 22 22 23 23 24 23 23 22 21 20 19 19 19 19 20 20 21 20 20 20 20 20 19 19 19 18 18
Wind_Direction
280 282 281 282 283 285 287 286 285 285 285 285 286 288 288 288 287 285 285 283 280 279 278 278 275 274 272 270 269 268 265 262 259 257 256 255 254 254
284 285 285 285 287 289 289 290 289 290 289 288 289 291 291 290 289 286 286 284 282 280 278 278 276 274 274 273 272 269 265 262 260 258 256 254 253 253
286 286 286 287 290 291 291 292 292 292 290 290 291 293 293 291 290 287 285 284 283 281 280 279 277 274 275 275 273 272 268 265 262 260 258 256 255 253
290 289 289 290 291 293 293 294 293 293 293 293 294 296 295 294 292 291 288 286 285 283 282 281 278 275 275 276 274 272 269 265 263 261 260 257 256 255
295 292 290 292 296 297 297 297 297 297 296 297 297 299 298 296 295 293 291 289 288 286 284 283 281 278 276 276 275 273 270 268 265 261 259 257 256 255
299 295 293 297 299 300 301 301 301 301 301 301 301 301 301 299 296 294 292 291 290 289 289 287 285 282 278 277 277 275 273 270 266 262 260 259 258 256
298 296 298 300 300 302 304 305 305 305 305 305 304 303 302 301 300 298 294 293 293 293 292 291 289 286 282 280 278 278 275 272 269 265 263 261 259 258
299 300 302 302 304 305 306 307 305 305 308 308 307 307 306 305 304 302 298 295 294 294 294 293 292 290 287 284 282 282 278 275 272 269 266 263 260 258
306 305 307 309 309 309 309 308 308 308 310 310 309 311 311 309 307 306 304 302 300 299 298 296 295 295 292 287 287 285 283 279 276 272 269 266 263 259
308 309 310 312 311 311 309 309 310 311 311 312 311 311 313 314 313 312 309 308 305 303 301 300 298 296 295 293 289 287 285 283 280 278 274 270 266 263
310 311 311 312 314 313 312 312 312 313 313 314 312 313 315 315 314 313 311 310 307 306 304 303 302 300 299 297 295 292 289 287 284 281 278 274 270 267
313 314 314 314 315 315 316 315 314 314 315 315 315 315 315 315 315 316 315 313 312 309 308 307 305 303 301 300 298 295 292 289 287 284 281 277 273 269
312 314 316 316 317 317 318 318 317 316 316 317 317 317 317 316 316 318 318 318 317 314 312 310 308 306 305 303 301 298 295 293 290 287 283 280 277 273
312 314 317 319 320 321 321 321 322 321 319 319 319 320 320 319 318 319 319 318 318 318 317 316 315 313 310 308 307 303 299 296 294 291 287 282 279 275
317 317 318 320 321 323 325 326 326 326 325 324 324 325 326 324 322 321 321 322 321 320 320 319 318 317 316 315 312 308 304 300 296 293 290 285 282 279
321 320 321 323 325 327 329 330 329 329 330 329 328 327 327 327 326 324 323 323 324 325 323 322 320 319 318 318 317 315 312 307 301 297 293 289 285 282
324 325 325 325 326 328 329 330 332 330 330 332 331 330 329 328 328 328 327 326 326 326 326 324 324 323 322 321 321 319 316 314 309 303 299 295 290 286
324 327 327 327 327 327 329 329 330 332 332 332 333 333 332 332 331 331 329 327 327 327 327 327 326 325 325 325 324 323 320 317 313 309 305 301 296 292
322 325 328 329 327 327 327 328 329 330 330 332 333 333 334 333 331 330 329 328 328 328 327 327 328 329 328 327 327 326 325 323 319 314 311 307 303 298
324 325 327 328 328 327 327 327 328 330 331 331 332 333 333 334 332 331 330 330 330 329 328 329 329 330 331 332 331 331 331 330 326 321 316 312 308 304
324 325 325 326 327 327 328 327 327 328 330 331 333 333 333 333 333 332 331 330 330 329 330 330 332 333 335 336 335 333 332 331 328 326 322 316 312 308
325 323 323 322 324 327 328 328 329 330 332 333 334 334 334 334 335 335 334 332 331 331 333 334 335 336 337 337 337 334 331 331 330 329 327 324 321 316
322 323 323 323 325 327 328 328 329 330 331 332 333 334 335 335 335 337 337 336 335 334 335 336 336 336 337 338 337 335 333 332 331 330 330 327 325 323
Height
5776 5775 5775 5774 5773 5772 5771 5770 5769 5767 5766 5765 5763 5762 5760 5758 5755 5754 5752 5750 5748 5746 5745 5743 5742 5741 5740 5739 5739 5738 5738 5739 5740 5742 5744 5746 5748 5751
5771 5770 5769 5768 5767 5766 5765 5764 5762 5761 5759 5758 5756 5754 5752 5749 5747 5745 5742 5740 5738 5737 5735 5733 5732 5731 5729 5728 5728 5727 5727 5728 5729 5731 5733 5735 5737 5740
5766 5765 5764 5763 5762 5761 5760 5758 5756 5754 5753 5751 5748 5746 5743 5741 5738 5735 5733 5731 5729 5727 5725 5723 5722 5721 5720 5718 5717 5716 5716 5717 5718 5719 5721 5723 5726 5728
5762 5761 5760 5759 5757 5756 5754 5752 5750 5748 5746 5744 5741 5738 5735 5733 5730 5727 5724 5721 5719 5717 5715 5713 5712 5711 5709 5708 5707 5706 5706 5706 5707 5708 5710 5712 5714 5716
5758 5757 5755 5754 5752 5750 5748 5746 5744 5741 5739 5736 5734 5731 5728 5725 5722 5718 5715 5712 5710 5708 5706 5704 5702 5701 5699 5698 5696 5695 5695 5695 5696 5697 5698 5700 5702 5704
5754 5753 5751 5749 5748 5745 5743 5740 5738 5735 5732 5730 5727 5724 5720 5717 5713 5710 5707 5704 5702 5699 5697 5695 5693 5691 5689 5688 5687 5685 5684 5684 5684 5686 5687 5688 5690 5691
5750 5749 5747 5745 5743 5740 5738 5735 5732 5729 5726 5723 5720 5717 5713 5709 5706 5703 5699 5697 5694 5691 5688 5686 5683 5681 5679 5678 5677 5675 5675 5674 5674 5675 5675 5676 5677 5679
5746 5744 5742 5740 5738 5735 5733 5730 5727 5724 5721 5717 5714 5710 5707 5703 5699 5695 5692 5689 5686 5684 5680 5678 5675 5673 5670 5669 5668 5666 5665 5664 5664 5664 5664 5665 5665 5667
5742 5740 5738 5736 5733 5730 5727 5724 5721 5718 5715 5712 5708 5704 5700 5696 5692 5688 5684 5681 5678 5675 5672 5670 5667 5665 5662 5660 5659 5658 5657 5655 5655 5654 5654 5654 5654 5655
5738 5736 5734 5731 5728 5726 5723 5719 5716 5712 5709 5705 5702 5698 5694 5690 5685 5681 5677 5674 5671 5668 5665 5663 5660 5658 5655 5653 5651 5649 5648 5647 5646 5645 5644 5644 5644 5644
5734 5732 5729 5727 5724 5720 5717 5714 5710 5706 5702 5699 5695 5692 5688 5684 5679 5675 5672 5668 5665 5662 5659 5657 5654 5651 5648 5645 5643 5641 5639 5638 5636 5635 5635 5634 5634 5634
5730 5728 5725 5722 5719 5715 5712 5708 5705 5701 5697 5694 5690 5686 5682 5678 5674 5670 5666 5662 5659 5657 5653 5650 5647 5644 5642 5639 5636 5633 5631 5629 5627 5626 5625 5624 5623 5623
5726 5724 5721 5717 5714 5710 5707 5703 5699 5695 5692 5688 5685 5681 5677 5673 5669 5665 5661 5657 5654 5651 5648 5644 5641 5638 5635 5632 5629 5626 5623 5620 5618 5617 5616 5615 5614 5613
5722 5719 5716 5713 5710 5706 5702 5698 5694 5690 5687 5683 5680 5676 5672 5668 5664 5660 5656 5652 5649 5645 5641 5638 5635 5632 5629 5626 5623 5619 5615 5612 5610 5608 5607 5606 5605 5604
5718 5715 5712 5709 5706 5702 5698 5694 5690 5686 5683 5679 5675 5671 5668 5664 5660 5656 5652 5648 5644 5640 5636 5633 5630 5627 5623 5620 5616 5612 5609 5606 5603 5601 5599 5598 5597 5596
5714 5711 5708 5705 5702 5698 5694 5690 5686 5683 5679 5675 5671 5667 5663 5660 5655 5652 5648 5644 5640 5636 5632 5628 5625 5621 5618 5614 5610 5606 5603 5600 5597 5595 5593 5591 5590 5589
5711 5708 5705 5702 5699 5695 5691 5687 5683 5679 5676 5672 5668 5664 5660 5656 5652 5648 5644 5640 5636 5632 5628 5624 5620 5616 5613 5609 5605 5601 5598 5595 5592 5589 5587 5585 5584 5582
5708 5705 5701 5698 5695 5692 5688 5684 5680 5676 5672 5669 5664 5660 5656 5652 5648 5644 5640 5636 5632 5628 5624 5620 5616 5612 5609 5605 5601 5597 5593 5590 5587 5584 5582 5580 5578 5576
5704 5701 5698 5695 5692 5688 5685 5681 5677 5673 5669 5665 5661 5657 5653 5649 5645 5640 5636 5632 5628 5624 5620 5616 5612 5608 5605 5601 5598 5593 5589 5585 5582 5579 5577 5574 5572 5570
5700 5697 5694 5691 5688 5685 5681 5677 5674 5670 5666 5662 5658 5654 5650 5645 5641 5637 5632 5628 5625 5621 5616 5612 5608 5605 5601 5597 5593 5589 5585 5582 5578 5575 5572 5569 5566 5564
5696 5694 5691 5688 5684 5681 5677 5674 5670 5667 5663 5659 5655 5650 5646 5642 5637 5633 5629 5625 5621 5617 5613 5609 5605 5601 5597 5593 5589 5586 5582 5578 5574 5571 5567 5564 5561 5559
5693 5690 5687 5684 5680 5677 5674 5670 5667 5663 5659 5655 5651 5647 5643 5638 5633 5629 5625 5621 5617 5613 5609 5605 5601 5597 5594 5590 5586 5582 5579 5575 5570 5567 5563 5560 5557 5553
5689 5686 5683 5680 5677 5673 5670 5667 5663 5660 5656 5652 5648 5644 5639 5635 5630 5626 5621 5617 5614 5610 5606 5603 5599 5595 5590 5586 5582 5579 5575 5571 5567 5563 5560 5556 5553 5549